Weather History for KSTK - March, 2014

Change the Weather History Date:

Friday, March 21, 2014

  Actual Average Record
Temperature  
Mean Temperature 40 °F -  
Max Temperature 51 °F 52 °F 73 °F (2015)
Min Temperature 28 °F 24 °F 26 °F (2015)
Degree Days  
Heating Degree Days 26    
Moisture  
Dew Point 24 °F    
Average Humidity 56    
Maximum Humidity 87    
Minimum Humidity 30    
Precipitation  
Precipitation 0.00 in - - ()
Sea Level Pressure  
Sea Level Pressure 30.06 in    
Wind  
Wind Speed 11 mph (NNE)    
Max Wind Speed 22 mph    
Max Gust Speed 29 mph    
Visibility 10 miles    
Events      
Averages and records for this station are not official NWS values.
T = Trace of Precipitation, MM = Missing Value Source: NWS Daily Summary

Daily Weather History Graph

Daily Weather History Graph

Search for Another Location

Airport or City:

Trip Planner

Search our weather history database for the weather conditions in past years. The results will help you decide how hot, cold, wet, or windy it might be!

Date:

Astronomy

Mar. 21, 2014 Rise Set
Actual Time 6:54 AM MDT 7:06 PM MDT
Civil Twilight 6:27 AM MDT 7:33 PM MDT
Nautical Twilight 5:55 AM MDT 8:05 PM MDT
Astronomical Twilight 5:23 AM MDT 8:38 PM MDT
Moon No Moon Rise 9:47 AM MDT (3/21)
Length of Visible Light 13h 06m
Length of Day
12h 11m
Waning Gibbous, 75% of the Moon is Illuminated
Mar 21
Waning Gibbous
Mar 23
Last Quarter
Mar 30
New
Apr 7
First Quarter
Apr 15
Full

Hourly Weather History & Observations

Time (MDT) Temp. Windchill Dew Point Humidity Pressure Visibility Wind Dir Wind Speed Gust Speed Precip Events Conditions
12:15 AM 41.0 °F 32.2 °F 24.8 °F 53% 29.86 in 10.0 mi NW 18.4 mph 26.5 mph N/A   Clear
12:35 AM 42.8 °F 36.6 °F 32.0 °F 66% 29.90 in 10.0 mi North 11.5 mph 24.2 mph N/A   Clear
12:55 AM 39.2 °F 32.0 °F 32.0 °F 75% 29.90 in 10.0 mi NE 11.5 mph 17.3 mph N/A   Clear
1:10 AM 37.4 °F 29.3 °F 32.0 °F 81% 29.90 in 10.0 mi NNE 12.7 mph 19.6 mph N/A   Clear
1:30 AM 37.4 °F 30.3 °F 30.2 °F 75% 29.91 in 10.0 mi NNE 10.4 mph 20.7 mph N/A   Clear
1:55 AM 35.6 °F 26.6 °F 30.2 °F 81% 29.92 in 10.0 mi North 13.8 mph 18.4 mph N/A   Clear
2:15 AM 35.6 °F 30.7 °F 30.2 °F 81% 29.93 in 10.0 mi ENE 5.8 mph - N/A   Clear
2:35 AM 33.8 °F 27.7 °F 30.2 °F 87% 29.93 in 10.0 mi NE 6.9 mph - N/A   Clear
2:55 AM 33.8 °F 28.6 °F 30.2 °F 87% 29.93 in 10.0 mi NE 5.8 mph - N/A   Clear
3:15 AM 33.8 °F - 28.4 °F 81% 29.94 in 10.0 mi Calm Calm - N/A   Clear
3:35 AM 33.8 °F 29.6 °F 30.2 °F 87% 29.94 in 10.0 mi East 4.6 mph - N/A   Clear
3:55 AM 33.8 °F 27.7 °F 28.4 °F 81% 29.94 in 10.0 mi North 6.9 mph - N/A   Clear
4:15 AM 32.0 °F 28.7 °F 26.6 °F 80% 29.94 in 10.0 mi NNE 3.5 mph - N/A   Clear
4:35 AM 32.0 °F 26.4 °F 24.8 °F 75% 29.95 in 10.0 mi NNE 5.8 mph - N/A   Clear
4:50 AM 32.0 °F - 23.0 °F 69% 29.95 in 10.0 mi Calm Calm - N/A   Clear
5:15 AM 32.0 °F - 23.0 °F 69% 29.96 in 10.0 mi Calm Calm - N/A   Clear
5:30 AM 32.0 °F - 23.0 °F 69% 29.96 in 10.0 mi Calm Calm - N/A   Clear
5:50 AM 30.2 °F 21.9 °F 21.2 °F 69% 29.96 in 10.0 mi North 9.2 mph - N/A   Clear
6:10 AM 30.2 °F 26.7 °F 23.0 °F 75% 29.98 in 10.0 mi NNW 3.5 mph - N/A   Clear
6:35 AM 28.4 °F 20.4 °F 21.2 °F 74% 29.99 in 10.0 mi NW 8.1 mph - N/A   Clear
6:50 AM 28.4 °F 22.2 °F 21.2 °F 74% 30.00 in 10.0 mi NW 5.8 mph - N/A   Clear
7:10 AM 30.2 °F 24.3 °F 23.0 °F 75% 30.02 in 10.0 mi NW 5.8 mph - N/A   Clear
7:30 AM 32.0 °F 23.0 °F 23.0 °F 69% 30.03 in 10.0 mi NNW 11.5 mph - N/A   Clear
7:50 AM 33.8 °F 25.8 °F 23.0 °F 65% 30.04 in 10.0 mi NNW 10.4 mph - N/A   Clear
8:10 AM 35.6 °F 28.0 °F 24.8 °F 65% 30.05 in 10.0 mi NW 10.4 mph - N/A   Clear
8:30 AM 37.4 °F 29.3 °F 24.8 °F 60% 30.06 in 10.0 mi NW 12.7 mph 17.3 mph N/A   Clear
8:50 AM 39.2 °F 30.2 °F 23.0 °F 52% 30.06 in 10.0 mi North 17.3 mph - N/A   Clear
9:10 AM 41.0 °F 31.9 °F 21.2 °F 45% 30.07 in 10.0 mi North 19.6 mph 24.2 mph N/A   Clear
9:35 AM 42.8 °F 35.1 °F 21.2 °F 42% 30.08 in 10.0 mi North 16.1 mph 23.0 mph N/A   Clear
9:55 AM 42.8 °F 34.8 °F 23.0 °F 46% 30.08 in 10.0 mi North 17.3 mph 23.0 mph N/A   Clear
10:15 AM 44.6 °F 37.2 °F 21.2 °F 39% 30.09 in 10.0 mi North 17.3 mph 27.6 mph N/A   Clear
10:30 AM 44.6 °F 37.2 °F 23.0 °F 43% 30.09 in 10.0 mi North 17.3 mph 25.3 mph N/A   Clear
10:55 AM 44.6 °F 36.9 °F 21.2 °F 39% 30.10 in 10.0 mi North 18.4 mph 27.6 mph N/A   Clear
11:15 AM 44.6 °F 36.1 °F 21.2 °F 39% 30.10 in 10.0 mi North 21.9 mph 26.5 mph N/A   Clear
11:35 AM 46.4 °F 38.7 °F 21.2 °F 37% 30.10 in 10.0 mi North 20.7 mph 27.6 mph N/A   Clear
11:55 AM 46.4 °F 39.2 °F 21.2 °F 37% 30.10 in 10.0 mi North 18.4 mph 28.8 mph N/A   Clear
12:15 PM 48.2 °F - 21.2 °F 34% 30.10 in 10.0 mi North 19.6 mph 26.5 mph N/A   Clear
12:35 PM 48.2 °F - 21.2 °F 34% 30.10 in 10.0 mi North 17.3 mph 24.2 mph N/A   Clear
12:55 PM 48.2 °F - 21.2 °F 34% 30.10 in 10.0 mi North 15.0 mph 24.2 mph N/A   Clear
1:15 PM 50.0 °F - 21.2 °F 32% 30.09 in 10.0 mi North 20.7 mph 28.8 mph N/A   Clear
1:35 PM 50.0 °F - 23.0 °F 35% 30.08 in 10.0 mi NNE 16.1 mph 21.9 mph N/A   Clear
1:55 PM 50.0 °F - 21.2 °F 32% 30.08 in 10.0 mi North 12.7 mph 25.3 mph N/A   Clear
2:15 PM 51.8 °F - 21.2 °F 30% 30.08 in 10.0 mi North 16.1 mph 21.9 mph N/A   Clear
2:35 PM 51.8 °F - 21.2 °F 30% 30.08 in 10.0 mi North 16.1 mph 28.8 mph N/A   Clear
2:55 PM 50.0 °F - 21.2 °F 32% 30.07 in 10.0 mi North 16.1 mph 27.6 mph N/A   Clear
3:15 PM 50.0 °F - 21.2 °F 32% 30.07 in 10.0 mi North 13.8 mph 18.4 mph N/A   Clear
3:35 PM 50.0 °F - 21.2 °F 32% 30.08 in 10.0 mi North 13.8 mph 21.9 mph N/A   Clear
3:55 PM 51.8 °F - 21.2 °F 30% 30.08 in 10.0 mi North 16.1 mph 20.7 mph N/A   Clear
4:15 PM 51.8 °F - 21.2 °F 30% 30.08 in 10.0 mi North 18.4 mph 21.9 mph N/A   Clear
4:30 PM 50.0 °F - 21.2 °F 32% 30.08 in 10.0 mi NE 10.4 mph 19.6 mph N/A   Clear
4:50 PM 48.2 °F - 21.2 °F 34% 30.08 in 10.0 mi North 12.7 mph - N/A   Clear
5:15 PM 46.4 °F 41.5 °F 21.2 °F 37% 30.09 in 10.0 mi NE 10.4 mph - N/A   Clear
5:30 PM 46.4 °F 40.1 °F 21.2 °F 37% 30.09 in 10.0 mi NNE 15.0 mph - N/A   Clear
5:55 PM 46.4 °F 41.5 °F 21.2 °F 37% 30.09 in 10.0 mi NE 10.4 mph - N/A   Clear
6:10 PM 44.6 °F 39.2 °F 21.2 °F 39% 30.10 in 10.0 mi NE 10.4 mph - N/A   Clear
6:30 PM 44.6 °F 40.7 °F 21.2 °F 39% 30.11 in 10.0 mi NE 6.9 mph - N/A   Clear
6:50 PM 42.8 °F 38.6 °F 21.2 °F 42% 30.11 in 10.0 mi NE 6.9 mph - N/A   Clear
7:10 PM 41.0 °F 36.4 °F 21.2 °F 45% 30.11 in 10.0 mi NE 6.9 mph - N/A   Clear
7:30 PM 41.0 °F 36.4 °F 21.2 °F 45% 30.11 in 10.0 mi NE 6.9 mph - N/A   Clear
7:50 PM 41.0 °F 37.1 °F 21.2 °F 45% 30.12 in 10.0 mi NE 5.8 mph - N/A   Clear
8:10 PM 39.2 °F 34.2 °F 23.0 °F 52% 30.13 in 10.0 mi NE 6.9 mph - N/A   Clear
8:30 PM 37.4 °F 31.4 °F 24.8 °F 60% 30.14 in 10.0 mi ENE 8.1 mph - N/A   Clear
8:50 PM 39.2 °F 31.6 °F 26.6 °F 61% 30.16 in 10.0 mi East 12.7 mph 17.3 mph N/A   Clear
9:10 PM 37.4 °F 29.3 °F 26.6 °F 65% 30.17 in 10.0 mi ENE 12.7 mph 18.4 mph N/A   Clear
9:30 PM 35.6 °F 30.7 °F 26.6 °F 70% 30.18 in 10.0 mi ENE 5.8 mph - N/A   Clear
9:50 PM 35.6 °F 28.6 °F 26.6 °F 70% 30.19 in 10.0 mi East 9.2 mph 18.4 mph N/A   Clear
10:10 PM 35.6 °F 29.9 °F 26.6 °F 70% 30.19 in 10.0 mi East 6.9 mph - N/A   Scattered Clouds
10:30 PM 35.6 °F 27.5 °F 26.6 °F 70% 30.20 in 10.0 mi East 11.5 mph - N/A   Scattered Clouds
10:50 PM 33.8 °F 25.3 °F 26.6 °F 75% 30.20 in 10.0 mi East 11.5 mph 16.1 mph N/A   Mostly Cloudy
11:10 PM 33.8 °F 25.3 °F 26.6 °F 75% 30.21 in 10.0 mi East 11.5 mph - N/A   Overcast
11:30 PM 33.8 °F 26.4 °F 26.6 °F 75% 30.20 in 10.0 mi East 9.2 mph - N/A   Overcast
11:50 PM 33.8 °F 27.7 °F 26.6 °F 75% 30.20 in 10.0 mi ESE 6.9 mph - N/A   Overcast